Weather History for Mombasa, Kenya

Change the Weather History Date:

Friday, October 11, 2013

  Actual Average Record
Temperature  
Mean Temperature 78 °F -  
Max Temperature 83 °F 88 °F 86 °F (2002)
Min Temperature 72 °F 71 °F 68 °F (2010)
Cooling Degree Days 12    
Growing Degree Days 28 (Base 50)    
Moisture  
Dew Point 74 °F    
Average Humidity 86    
Maximum Humidity 100    
Minimum Humidity 71    
Precipitation  
Precipitation 0.12 in 0.14 in - ()
Sea Level Pressure  
Sea Level Pressure 29.98 in    
Wind  
Wind Speed 8 mph ()    
Max Wind Speed 14 mph    
Max Gust Speed -    
Visibility 7.8 miles    
Events Rain    
Averages and records for this station are not official NWS values.
T = Trace of Precipitation, MM = Missing Value Source: Averaged Metar Reports

Daily Weather History Graph

Daily Weather History Graph

Search for Another Location

Airport:

Trip Planner

Search our weather history database for the weather conditions in past years. The results will help you decide how hot, cold, wet, or windy it might be!

Date:

Astronomy

Oct. 11, 2013 Rise Set
Actual Time 6:02 AM EAT 6:13 PM EAT
Civil Twilight 5:42 AM EAT 6:34 PM EAT
Nautical Twilight 5:17 AM EAT 6:58 PM EAT
Astronomical Twilight 4:53 AM EAT 7:23 PM EAT
Moon 11:39 AM EAT (10/11) No Moon Set
Length of Visible Light 12h 52m
Length of Day
12h 10m
Waxing Crescent, 43% of the Moon is Illuminated
Oct 11
Waxing Crescent
Oct 12
First Quarter
Oct 19
Full
Oct 27
Last Quarter
Nov 3
New

Hourly Weather History & Observations

Time (EAT) Temp. Heat Index Dew Point Humidity Pressure Visibility Wind Dir Wind Speed Gust Speed Precip Events Conditions
12:00 AM 77.0 °F - 73.4 °F 89% 29.98 in 6.2 mi SSW 5.8 mph - N/A   Mostly Cloudy
1:00 AM 77.0 °F - 71.6 °F 83% 29.98 in 6.2 mi SSW 5.8 mph - N/A   Mostly Cloudy
2:00 AM 77.0 °F - 73.4 °F 89% 29.98 in 6.2 mi South 5.8 mph - N/A   Mostly Cloudy
3:00 AM 74 °F - 72 °F 94% 29.96 in 16 mi SSW 11.5 mph - - Rain Light Rain Showers
3:00 AM 75.2 °F - 73.4 °F 94% 29.95 in 6.2 mi SSW 11.5 mph - N/A   Mostly Cloudy
4:00 AM 73.4 °F - 73.4 °F 100% 29.95 in 6.2 mi South 6.9 mph - N/A   Scattered Clouds
5:00 AM 75.2 °F - 73.4 °F 94% 29.98 in 6.2 mi SSW 9.2 mph - N/A   Mostly Cloudy
6:00 AM 75.2 °F - 73.4 °F 94% 29.98 in 6.2 mi SSW 3.5 mph - N/A   Mostly Cloudy
7:00 AM 77.0 °F - 75.2 °F 94% 30.01 in 5.6 mi South 10.4 mph - N/A   Mostly Cloudy
8:00 AM 77.0 °F - 75.2 °F 94% 30.04 in 6.2 mi South 9.2 mph - N/A   Mostly Cloudy
9:00 AM 78 °F - 75 °F 88% 30.04 in 19 mi SSW 9.2 mph - -   Mostly Cloudy
9:00 AM 78.8 °F - 75.2 °F 89% 30.04 in 6.2 mi SSW 9.2 mph - N/A   Mostly Cloudy
10:00 AM 80.6 °F 85.4 °F 73.4 °F 79% 30.04 in 6.2 mi South 11.5 mph - N/A   Mostly Cloudy
11:00 AM 82.4 °F 89.5 °F 75.2 °F 79% 30.04 in 6.2 mi SE 13.8 mph - N/A   Mostly Cloudy
12:00 PM 80.6 °F 86.2 °F 75.2 °F 84% 30.01 in 6.2 mi ESE 11.5 mph - N/A Rain Light Rain Showers
1:00 PM 82.4 °F 89.5 °F 75.2 °F 79% 29.98 in 6.2 mi ESE 11.5 mph - N/A   Mostly Cloudy
2:00 PM 80.6 °F 86.2 °F 75.2 °F 84% 29.95 in 6.2 mi SE 11.5 mph - N/A   Mostly Cloudy
3:00 PM 81 °F - 73 °F 71% 29.94 in 19 mi ESE 12.7 mph - -   Mostly Cloudy
3:00 PM 80.6 °F 85.4 °F 73.4 °F 79% 29.95 in 6.2 mi ESE 12.7 mph - N/A   Mostly Cloudy
4:00 PM 82.4 °F 88.2 °F 73.4 °F 74% 29.95 in 6.2 mi ESE 12.7 mph - N/A   Mostly Cloudy
5:00 PM 82.4 °F 88.2 °F 73.4 °F 74% 29.95 in 6.2 mi East 12.7 mph - N/A   Mostly Cloudy
6:00 PM 80.6 °F 85.4 °F 73.4 °F 79% 29.95 in 6.2 mi ESE 11.5 mph - N/A   Scattered Clouds
7:00 PM 78.8 °F - 73.4 °F 83% 29.95 in 6.2 mi SSE 11.5 mph - N/A   Scattered Clouds
8:00 PM 78.8 °F - 75.2 °F 89% 29.98 in 6.2 mi South 5.8 mph - N/A   Mostly Cloudy
9:00 PM 78 °F - 74 °F 85% 29.99 in 16 mi SSE 11.5 mph - -   Mostly Cloudy
9:00 PM 78.8 °F - 75.2 °F 89% 29.98 in 6.2 mi SSE 11.5 mph - N/A   Mostly Cloudy
10:00 PM 78.8 °F - 75.2 °F 89% 30.01 in 6.2 mi Calm Calm - N/A   Scattered Clouds
11:00 PM 78.8 °F - 75.2 °F 89% 30.01 in 6.2 mi Calm Calm - N/A   Partly Cloudy